FW7253 Weather Reports


Display with metric or nautical units.
time (UTC)temp
F
wind
direction
speed
MPH
gust
MPH
rain 1hr
in
rain 24hr
in
rain mn
in
humidity
%
barometer
mb
20220119203053 32 328 10.0 21.0 0.00 0.00 0.00 49 999.9
20220119202533 32 297 10.0 21.0 0.00 0.00 0.00 49 999.7
20220119202032 32 4 10.0 24.0 0.00 0.00 0.00 49 999.4
20220119201547 32 309 13.0 25.0 0.00 0.00 0.00 49 999.3
20220119201033 32 261 12.0 25.0 0.00 0.00 0.00 48 999.0
20220119200532 32 357 9.0 20.0 0.00 0.00 0.00 48 998.9
20220119200052 33 283 10.0 20.0 0.00 0.00 0.00 47 998.7
20220119195531 33 310 10.0 19.0 0.00 0.00 0.00 47 998.7
20220119195033 33 304 8.0 21.0 0.00 0.00 0.00 48 998.4
20220119194651 33 337 8.0 21.0 0.00 0.00 0.00 47 998.5
20220119194034 33 305 11.0 21.0 0.00 0.00 0.00 47 998.4
20220119193533 33 331 5.0 23.0 0.00 0.00 0.00 47 998.6
20220119193102 33 323 9.0 23.0 0.00 0.00 0.00 47 998.3
20220119192533 33 314 6.0 25.0 0.00 0.00 0.00 48 998.3
20220119192046 33 307 11.0 25.0 0.00 0.00 0.00 47 998.1
20220119191619 34 319 9.0 19.0 0.00 0.00 0.00 48 998.2
20220119191032 34 296 7.0 24.0 0.00 0.00 0.00 48 997.9
20220119190537 34 329 10.0 24.0 0.00 0.00 0.00 49 997.6
20220119190100 34 333 12.0 24.0 0.00 0.00 0.00 48 997.4
20220119185535 35 314 11.0 25.0 0.00 0.00 0.00 49 997.3
20220119185033 35 304 12.0 25.0 0.00 0.00 0.00 48 997.5
20220119184611 35 337 8.0 22.0 0.00 0.00 0.00 49 997.4
20220119184040 35 303 11.0 25.0 0.00 0.00 0.00 48 997.3
20220119183552 36 325 12.0 25.0 0.00 0.00 0.00 48 997.1
20220119183145 36 262 10.0 20.0 0.00 0.00 0.00 47 996.9
20220119182534 37 344 7.0 23.0 0.00 0.00 0.00 45 996.9
20220119182106 37 326 12.0 25.0 0.00 0.00 0.00 44 996.8
20220119181620 37 283 9.0 25.0 0.00 0.00 0.00 43 996.5
20220119181034 37 326 12.0 23.0 0.00 0.00 0.00 44 996.3
20220119180533 38 345 12.0 30.0 0.00 0.00 0.00 43 996.0
20220119180133 38 354 13.0 30.0 0.00 0.00 0.00 43 995.7
20220119175537 38 349 12.0 27.0 0.00 0.00 0.00 45 995.6
20220119175035 38 339 12.0 27.0 0.00 0.00 0.00 45 995.7
20220119174703 38 298 9.0 26.0 0.00 0.00 0.00 47 995.5
20220119174035 39 318 11.0 26.0 0.00 0.00 0.00 46 995.5
20220119173534 39 345 12.0 25.0 0.00 0.00 0.00 45 995.5
20220119173104 39 304 9.0 22.0 0.00 0.00 0.00 46 995.2
20220119172533 39 330 12.0 22.0 0.00 0.00 0.00 47 995.1
20220119172033 40 316 9.0 22.0 0.00 0.00 0.00 50 994.9
20220119171547 40 293 11.0 22.0 0.00 0.00 0.00 51 995.0
20220119171036 40 317 9.0 30.0 0.00 0.00 0.00 52 995.2
20220119170605 40 349 13.0 30.0 0.00 0.00 0.00 52 995.3
20220119170115 40 340 13.0 27.0 0.00 0.00 0.00 51 995.0
20220119165533 41 290 11.0 27.0 0.00 0.00 0.00 50 994.7
20220119165034 41 255 16.0 25.0 0.00 0.00 0.00 51 994.3
20220119164601 41 274 15.0 25.0 0.00 0.00 0.00 52 993.9
20220119164042 42 290 12.0 26.0 0.00 0.00 0.00 53 993.6
20220119163531 42 300 11.0 26.0 0.00 0.00 0.00 55 993.6
20220119163138 42 321 12.0 25.0 0.00 0.00 0.00 55 993.4
20220119162531 43 354 12.0 25.0 0.00 0.00 0.00 55 993.3
20220119162034 43 300 7.0 17.0 0.00 0.00 0.00 57 993.2
20220119161542 43 275 9.0 20.0 0.00 0.00 0.00 58 992.9
20220119161041 43 307 11.0 20.0 0.00 0.00 0.00 59 992.8
20220119160534 43 304 7.0 25.0 0.00 0.00 0.00 60 992.8
20220119160113 43 274 10.0 25.0 0.00 0.00 0.00 62 992.8
20220119155533 42 343 5.0 15.0 0.00 0.00 0.00 67 993.0
20220119155038 42 342 4.0 8.0 0.00 0.00 0.00 71 992.8
20220119154552 42 267 3.0 8.0 0.00 0.00 0.00 76 992.8
20220119154108 42 301 4.0 9.0 0.00 0.00 0.00 78 992.8
20220119153531 41 306 3.0 9.0 0.00 0.00 0.00 81 992.9
20220119153131 41 269 2.0 8.0 0.00 0.00 0.00 84 993.1
20220119152530 40 136 2.0 8.0 0.00 0.00 0.00 87 992.9
20220119152042 40 229 2.0 7.0 0.00 0.00 0.00 87 992.7
20220119151653 40 214 5.0 8.0 0.00 0.00 0.00 86 992.8
20220119151040 41 214 4.0 10.0 0.00 0.00 0.00 86 992.9
20220119150542 41 283 6.0 10.0 0.00 0.00 0.00 86 993.0
20220119150047 41 191 7.0 10.0 0.00 0.00 0.00 86 993.0
20220119145534 41 165 5.0 11.0 0.00 0.00 0.00 86 993.1
20220119145034 41 218 5.0 11.0 0.00 0.00 0.00 87 993.1
20220119144553 41 220 7.0 13.0 0.00 0.00 0.00 87 993.1
20220119144039 41 218 7.0 14.0 0.00 0.00 0.00 86 993.1
20220119143535 41 229 9.0 14.0 0.00 0.00 0.00 86 993.0
20220119143121 41 195 9.0 12.0 0.00 0.00 0.00 87 992.9
20220119142530 41 203 7.0 11.0 0.00 0.00 0.00 86 993.1
20220119142035 41 207 7.0 11.0 0.00 0.00 0.00 85 993.3
20220119141619 41 226 6.0 10.0 0.00 0.00 0.00 85 993.7
20220119141031 42 200 5.0 14.0 0.00 0.00 0.00 85 993.8
20220119140535 42 215 8.0 14.0 0.00 0.00 0.00 85 993.9
20220119140143 42 209 7.0 13.0 0.00 0.00 0.00 85 993.9
20220119135531 42 181 8.0 13.0 0.00 0.00 0.00 84 994.0
20220119135036 42 191 6.0 16.0 0.00 0.00 0.00 85 994.1
20220119134543 42 185 6.0 16.0 0.00 0.00 0.00 84 994.1
20220119134037 43 209 7.0 15.0 0.00 0.00 0.00 85 994.1
20220119133533 42 211 6.0 14.0 0.00 0.00 0.00 85 994.3
20220119133059 42 221 8.0 16.0 0.00 0.00 0.00 85 994.4
20220119132532 42 218 10.0 18.0 0.00 0.00 0.00 85 994.5
20220119132034 42 198 11.0 18.0 0.00 0.00 0.00 86 994.7
20220119131537 42 208 10.0 20.0 0.00 0.00 0.00 86 994.9
20220119131034 42 242 13.0 21.0 0.00 0.00 0.00 86 995.0
20220119130537 42 199 14.0 21.0 0.00 0.00 0.00 86 995.1
20220119130043 42 219 12.0 19.0 0.00 0.00 0.00 85 995.1
20220119125532 42 172 12.0 19.0 0.00 0.00 0.00 86 995.2
20220119125034 42 228 12.0 18.0 0.00 0.00 0.00 85 995.6
20220119124645 42 215 9.0 16.0 0.00 0.00 0.00 85 995.8
20220119124039 42 201 9.0 16.0 0.00 0.00 0.00 86 996.0
20220119123536 42 174 12.0 16.0 0.00 0.00 0.00 86 996.5
20220119123112 42 168 9.0 13.0 0.00 0.00 0.00 86 996.7
20220119122533 42 176 8.0 13.0 0.00 0.00 0.00 86 996.7
20220119122041 42 186 5.0 10.0 0.00 0.00 0.00 86 997.0
20220119121644 42 188 5.0 9.0 0.00 0.00 0.00 86 997.1
20220119121033 42 198 4.0 9.0 0.00 0.00 0.00 87 997.3
20220119120535 42 180 3.0 8.0 0.00 0.00 0.00 87 997.5
20220119120105 42 79 1.0 10.0 0.00 0.00 0.00 87 997.7
20220119115533 42 158 5.0 10.0 0.00 0.00 0.00 87 997.9
20220119115035 42 176 3.0 8.0 0.00 0.00 0.00 87 998.0
20220119114626 41 161 4.0 7.0 0.00 0.00 0.00 87 998.2
20220119114033 41 129 3.0 8.0 0.00 0.00 0.00 87 998.4
20220119113533 42 196 4.0 8.0 0.00 0.00 0.00 87 998.6
20220119113046 42 17 4.0 8.0 0.00 0.00 0.00 87 998.7
20220119112538 42 143 2.0 6.0 0.00 0.00 0.00 87 998.9
20220119112037 42 145 2.0 11.0 0.00 0.00 0.00 86 999.0
20220119111622 42 100 3.0 11.0 0.00 0.00 0.00 87 999.3
20220119111035 42 81 3.0 11.0 0.00 0.00 0.00 87 999.5
20220119110530 42 89 3.0 11.0 0.00 0.00 0.00 87 999.5
20220119110055 42 68 5.0 11.0 0.00 0.00 0.00 87 999.6
20220119105615 42 128 3.0 6.0 0.00 0.00 0.00 87 999.8
20220119105045 41 220 1.0 9.0 0.00 0.00 0.00 88 1000.1
20220119104615 41 155 3.0 9.0 0.00 0.00 0.00 88 1000.3
20220119104031 41 172 3.0 6.0 0.00 0.00 0.00 87 1000.4
20220119103530 41 176 3.0 7.0 0.00 0.00 0.00 88 1000.8
20220119103054 41 193 3.0 11.0 0.00 0.00 0.00 88 1000.9
20220119102534 41 179 6.0 13.0 0.00 0.00 0.00 88 1001.1
20220119102033 41 201 7.0 14.0 0.00 0.00 0.00 88 1001.4
20220119101615 41 199 7.0 14.0 0.00 0.00 0.00 87 1001.5
20220119101035 41 188 8.0 14.0 0.00 0.00 0.00 88 1001.6
20220119100533 41 180 8.0 14.0 0.00 0.00 0.00 88 1001.8
20220119100110 41 203 8.0 12.0 0.00 0.00 0.00 88 1002.0
20220119095535 40 136 7.0 13.0 0.00 0.00 0.00 88 1002.0
20220119095032 40 199 6.0 13.0 0.00 0.00 0.00 88 1002.2
20220119094540 40 172 5.0 8.0 0.00 0.00 0.00 89 1002.4
20220119094051 40 133 3.0 8.0 0.00 0.00 0.00 88 1002.6
20220119093533 40 150 3.0 8.0 0.00 0.00 0.00 88 1002.8
20220119093044 40 184 2.0 7.0 0.00 0.00 0.00 88 1003.0
20220119092551 40 198 3.0 7.0 0.00 0.00 0.00 88 1003.1
20220119092034 40 113 3.0 7.0 0.00 0.00 0.00 88 1003.2
20220119091547 40 91 4.0 7.0 0.00 0.00 0.00 88 1003.2
20220119091030 40 100 3.0 8.0 0.00 0.00 0.00 88 1003.3
20220119090530 40 101 4.0 8.0 0.00 0.00 0.00 88 1003.3
20220119090108 40 173 4.0 9.0 0.00 0.00 0.00 88 1003.4
20220119085534 39 163 4.0 9.0 0.00 0.00 0.00 89 1003.5
20220119085039 39 148 2.0 7.0 0.00 0.00 0.00 88 1003.7
20220119084548 39 148 2.0 8.0 0.00 0.00 0.00 89 1003.8
20220119084036 39 195 3.0 10.0 0.00 0.00 0.00 89 1003.9
20220119083541 39 196 4.0 11.0 0.00 0.00 0.00 89 1003.9
20220119083041 39 195 5.0 11.0 0.00 0.00 0.00 89 1003.9
20220119082533 38 206 6.0 10.0 0.00 0.00 0.00 90 1004.0
20220119082042 38 157 6.0 10.0 0.00 0.00 0.00 90 1004.2
20220119081623 38 207 4.0 7.0 0.00 0.00 0.00 89 1004.4
20220119081033 38 201 4.0 6.0 0.00 0.00 0.00 89 1004.5
20220119080537 39 154 3.0 8.0 0.00 0.00 0.00 89 1004.5
20220119080146 39 169 5.0 8.0 0.00 0.00 0.00 89 1004.7
20220119075530 39 210 2.0 11.0 0.00 0.00 0.00 89 1004.7
20220119075046 39 120 5.0 11.0 0.00 0.00 0.00 89 1004.9
20220119074617 38 136 6.0 11.0 0.00 0.00 0.00 89 1005.1
20220119074031 38 198 6.0 9.0 0.00 0.00 0.00 89 1005.3
20220119073531 38 204 5.0 9.0 0.00 0.00 0.00 89 1005.5
20220119073134 38 176 4.0 12.0 0.00 0.00 0.00 90 1005.7
20220119072540 38 197 7.0 14.0 0.00 0.00 0.00 91 1005.6
20220119072034 37 213 10.0 14.0 0.00 0.00 0.00 90 1005.8
20220119071617 37 159 8.0 12.0 0.00 0.00 0.00 92 1005.8
20220119071034 36 207 7.0 9.0 0.00 0.00 0.00 91 1006.0
20220119070542 36 202 3.0 7.0 0.00 0.00 0.00 91 1006.1
20220119070110 36 200 4.0 7.0 0.00 0.00 0.00 90 1006.2
20220119065530 36 186 2.0 5.0 0.00 0.00 0.00 90 1006.2
20220119065033 36 150 1.0 4.0 0.00 0.00 0.00 90 1006.3
20220119064558 36 105 1.0 2.0 0.00 0.00 0.00 90 1006.4
20220119064033 36 0 0.0 2.0 0.00 0.00 0.00 90 1006.5
20220119063537 36 103 0.0 2.0 0.00 0.00 0.00 90 1006.6
20220119063050 37 74 1.0 2.0 0.00 0.00 0.00 90 1006.9
20220119062531 37 196 0.0 3.0 0.00 0.00 0.00 90 1007.1
20220119062042 37 195 1.0 4.0 0.00 0.00 0.00 90 1007.1
20220119061555 37 139 1.0 4.0 0.00 0.00 0.00 90 1007.2
20220119061029 37 96 2.0 3.0 0.00 0.00 0.00 89 1007.3
20220119060536 37 151 0.0 2.0 0.00 0.00 0.00 89 1007.4
20220119060120 37 128 0.0 3.0 0.00 0.00 0.00 89 1007.5
20220119055550 37 161 1.0 3.0 0.00 0.00 0.00 89 1007.6
20220119055034 37 124 0.0 1.0 0.00 0.00 0.00 89 1007.7
20220119054542 37 0 0.0 2.0 0.00 0.00 0.00 89 1007.6
20220119054041 37 0 0.0 4.0 0.00 0.00 0.00 89 1007.9
20220119053547 37 245 1.0 4.0 0.00 0.00 0.00 90 1007.9
20220119053110 37 277 0.0 2.0 0.00 0.00 0.00 89 1008.0
20220119052537 37 0 0.0 2.0 0.00 0.00 0.00 89 1008.0
20220119052033 37 0 0.0 4.0 0.00 0.00 0.00 89 1008.2
20220119051552 37 189 1.0 6.0 0.00 0.00 0.00 89 1008.3
20220119051036 37 215 4.0 6.0 0.00 0.00 0.00 90 1008.3
20220119050536 36 195 2.0 3.0 0.00 0.00 0.00 89 1008.5
20220119050218 36 316 0.0 2.0 0.00 0.00 0.00 89 1008.5
20220119045536 36 231 1.0 5.0 0.00 0.00 0.00 88 1008.5
20220119045040 36 212 2.0 5.0 0.00 0.00 0.00 88 1008.8
20220119044550 36 243 1.0 5.0 0.00 0.00 0.00 87 1008.9
20220119044041 36 245 2.0 5.0 0.00 0.00 0.00 88 1008.9
20220119043532 36 150 0.0 5.0 0.00 0.00 0.00 87 1009.0
20220119043048 36 176 0.0 5.0 0.00 0.00 0.00 87 1009.1
20220119042532 36 0 0.0 5.0 0.00 0.00 0.00 86 1009.2
20220119042036 35 84 1.0 2.0 0.00 0.00 0.00 86 1009.2
20220119041618 35 85 1.0 3.0 0.00 0.00 0.00 85 1009.2
20220119041033 35 88 1.0 3.0 0.00 0.00 0.00 84 1009.4
20220119040533 35 93 1.0 3.0 0.00 0.00 0.00 84 1009.6
20220119040149 35 0 0.0 1.0 0.00 0.00 0.00 83 1009.8
20220119035536 35 0 0.0 1.0 0.00 0.00 0.00 83 1009.8
20220119035034 35 0 0.0 2.0 0.00 0.00 0.00 82 1009.7
20220119034559 35 0 0.0 2.0 0.00 0.00 0.00 82 1010.0
20220119034037 35 0 0.0 5.0 0.00 0.00 0.00 81 1009.9
20220119033534 35 131 1.0 6.0 0.00 0.00 0.00 80 1009.8
20220119033107 35 105 2.0 6.0 0.00 0.00 0.00 80 1010.0
20220119032539 35 121 1.0 7.0 0.00 0.00 0.00 79 1010.3
20220119032034 35 116 3.0 7.0 0.00 0.00 0.00 79 1010.8
20220119031622 35 89 2.0 6.0 0.00 0.00 0.00 78 1011.1
20220119031038 35 152 1.0 5.0 0.00 0.00 0.00 78 1011.1
20220119030537 35 121 2.0 5.0 0.00 0.00 0.00 78 1011.4
20220119030114 35 143 1.0 4.0 0.00 0.00 0.00 78 1011.3
20220119025533 35 115 2.0 5.0 0.00 0.00 0.00 78 1011.4
20220119025031 35 138 1.0 6.0 0.00 0.00 0.00 78 1011.7
20220119024635 35 153 2.0 6.0 0.00 0.00 0.00 78 1012.0
20220119024047 35 98 2.0 5.0 0.00 0.00 0.00 78 1012.0
20220119023539 35 119 2.0 6.0 0.00 0.00 0.00 78 1012.2
20220119023102 35 85 2.0 6.0 0.00 0.00 0.00 78 1012.4
20220119022533 35 110 2.0 6.0 0.00 0.00 0.00 78 1012.5
20220119022040 36 100 1.0 5.0 0.00 0.00 0.00 78 1012.7
20220119021608 36 77 1.0 6.0 0.00 0.00 0.00 78 1013.0
20220119021035 36 152 2.0 6.0 0.00 0.00 0.00 77 1013.2
20220119020543 36 141 2.0 6.0 0.00 0.00 0.00 77 1013.3
20220119020139 36 0 0.0 2.0 0.00 0.00 0.00 77 1013.4
20220119015536 36 166 0.0 2.0 0.00 0.00 0.00 76 1013.6
20220119015033 36 0 0.0 1.0 0.00 0.00 0.00 76 1013.7
20220119014600 37 0 0.0 3.0 0.00 0.00 0.00 77 1013.7
20220119014102 37 0 1.0 3.0 0.00 0.00 0.00 77 1013.9
20220119013537 37 191 1.0 5.0 0.00 0.00 0.00 78 1013.8
20220119013138 36 207 3.0 5.0 0.00 0.00 0.00 78 1014.0
20220119012533 36 180 0.0 1.0 0.00 0.00 0.00 79 1014.1
20220119012042 36 0 0.0 1.0 0.00 0.00 0.00 79 1014.2
20220119011548 36 127 0.0 2.0 0.00 0.00 0.00 79 1014.2
20220119011030 36 142 0.0 2.0 0.00 0.00 0.00 79 1014.5
20220119010533 36 131 1.0 3.0 0.00 0.00 0.00 78 1014.5
20220119010405 37 0 0.0 3.0 0.00 0.00 0.00 78 1014.6
20220119005532 37 84 0.0 4.0 0.00 0.00 0.00 78 1014.8
20220119005106 37 119 0.0 5.0 0.00 0.00 0.00 78 1014.9
20220119004542 37 154 2.0 6.0 0.00 0.00 0.00 78 1015.2
20220119004055 37 172 2.0 7.0 0.00 0.00 0.00 78 1015.2
20220119003534 37 156 4.0 7.0 0.00 0.00 0.00 77 1015.2
20220119003049 38 164 3.0 8.0 0.00 0.00 0.00 77 1015.2
20220119002533 38 176 5.0 8.0 0.00 0.00 0.00 77 1015.3
20220119002034 38 214 2.0 5.0 0.00 0.00 0.00 77 1015.2
20220119001604 38 185 4.0 8.0 0.00 0.00 0.00 77 1015.4
20220119001037 38 212 4.0 8.0 0.00 0.00 0.00 77 1015.3
20220119000540 38 214 6.0 8.0 0.00 0.00 0.00 78 1015.5
20220119000122 37 236 4.0 6.0 0.00 0.00 0.00 79 1015.5
20220118235533 37 203 3.0 6.0 0.00 0.00 0.00 78 1015.6
20220118235037 37 228 4.0 6.0 0.00 0.00 0.00 78 1015.8
20220118234543 38 214 4.0 5.0 0.00 0.00 0.00 77 1016.1
20220118234041 38 217 1.0 8.0 0.00 0.00 0.00 77 1016.4
20220118233533 38 150 5.0 8.0 0.00 0.00 0.00 77 1016.3
20220118233125 38 208 6.0 8.0 0.00 0.00 0.00 77 1016.8
20220118232534 39 218 3.0 6.0 0.00 0.00 0.00 77 1016.9
20220118232038 39 206 2.0 7.0 0.00 0.00 0.00 78 1016.8
20220118231617 38 215 4.0 10.0 0.00 0.00 0.00 79 1016.8
20220118231033 38 197 6.0 10.0 0.00 0.00 0.00 79 1016.9
20220118230533 38 214 6.0 10.0 0.00 0.00 0.00 80 1017.1
20220118230046 37 204 4.0 6.0 0.00 0.00 0.00 80 1017.2
20220118225532 38 213 4.0 6.0 0.00 0.00 0.00 79 1017.2
20220118225033 38 189 3.0 6.0 0.00 0.00 0.00 79 1017.3
20220118224649 38 218 3.0 6.0 0.00 0.00 0.00 78 1017.5
20220118224032 39 200 4.0 7.0 0.00 0.00 0.00 77 1017.6
20220118223541 39 212 4.0 7.0 0.00 0.00 0.00 77 1017.6
20220118223048 39 197 3.0 8.0 0.00 0.00 0.00 76 1017.6
20220118222538 39 216 4.0 8.0 0.00 0.00 0.00 76 1017.8
20220118222038 39 224 2.0 4.0 0.00 0.00 0.00 76 1017.9
20220118221544 39 0 0.0 1.0 0.00 0.00 0.00 76 1017.9
20220118221034 39 0 0.0 1.0 0.00 0.00 0.00 76 1018.0
20220118220534 39 122 0.0 3.0 0.00 0.00 0.00 75 1018.0
20220118220130 40 176 1.0 5.0 0.00 0.00 0.00 76 1018.0
20220118215536 40 205 3.0 5.0 0.00 0.00 0.00 75 1018.4
20220118215033 39 184 3.0 5.0 0.00 0.00 0.00 76 1018.5
20220118214611 39 191 2.0 5.0 0.00 0.00 0.00 76 1018.6
20220118214041 39 205 2.0 4.0 0.00 0.00 0.00 75 1018.7
20220118213532 40 203 3.0 5.0 0.00 0.00 0.00 74 1018.7
20220118213047 40 178 2.0 5.0 0.00 0.00 0.00 73 1018.8
20220118212532 41 204 0.0 1.0 0.00 0.00 0.00 72 1019.0
20220118212045 41 0 0.0 4.0 0.00 0.00 0.00 71 1019.1
20220118211611 41 94 1.0 4.0 0.00 0.00 0.00 71 1019.1
20220118211034 41 99 1.0 5.0 0.00 0.00 0.00 71 1019.2
20220118210533 41 97 3.0 5.0 0.00 0.00 0.00 71 1019.4
20220118210106 42 92 1.0 4.0 0.00 0.00 0.00 70 1019.4
20220118205533 42 86 1.0 4.0 0.00 0.00 0.00 70 1019.5
20220118205032 42 113 1.0 6.0 0.00 0.00 0.00 70 1019.7
20220118204609 41 136 3.0 6.0 0.00 0.00 0.00 71 1019.6
20220118204039 41 0 1.0 4.0 0.00 0.00 0.00 71 1019.8
20220118203535 41 0 0.0 1.0 0.00 0.00 0.00 71 1020.0
20220118203124 41 0 0.0 1.0 0.00 0.00 0.00 69 1020.0